• In France
  • List of Countries
  • For 7 days
  • Water Temperature
  • Satellite Maps
  • Weather Map
  • Weather Widgets
  • user-avatar
    Login

    Hourly Weather Shkoder

    Today, 19 January, Friday

    Time Temperature Precipitation Wind Pressure Humidity
    00:00 +1°C° 0 mm 3 mps 740 mmHg 59%
    01:00 +2°C° 0 mm 3 mps 740 mmHg 62%
    02:00 +2°C° 0 mm 3 mps 739 mmHg 64%
    03:00 +2°C° 0 mm 3 mps 739 mmHg 66%
    04:00 +2°C° 0 mm 3 mps 739 mmHg 69%
    05:00 +2°C° 0 mm 3 mps 739 mmHg 70%
    06:00 +2°C° 0 mm 3 mps 739 mmHg 71%
    07:00 +2°C° 0 mm 3 mps 739 mmHg 73%
    08:00 +3°C° 0 mm 3 mps 739 mmHg 71%
    09:00 +5°C° 0 mm 3 mps 739 mmHg 70%
    10:00 +8°C° 0 mm 3 mps 739 mmHg 68%
    11:00 +8°C° 0 mm 3 mps 738 mmHg 72%
    12:00 +8°C° 0 mm 3 mps 738 mmHg 75%
    13:00 +8°C° 0 mm 3 mps 738 mmHg 78%
    14:00 +8°C° 0.1 mm 3 mps 738 mmHg 80%
    15:00 +7°C° 0.1 mm 3 mps 737 mmHg 83%
    16:00 +7°C° 0.1 mm 3 mps 737 mmHg 86%
    17:00 +7°C° 0.2 mm 3 mps 737 mmHg 87%
    18:00 +7°C° 0.2 mm 3 mps 737 mmHg 88%
    19:00 +7°C° 0.2 mm 3 mps 737 mmHg 88%
    20:00 +7°C° 0.5 mm 3 mps 737 mmHg 89%
    21:00 +7°C° 0.5 mm 3 mps 737 mmHg 89%
    22:00 +7°C° 0.5 mm 3 mps 737 mmHg 89%
    23:00 +6°C° 0.8 mm 4 mps 737 mmHg 90%

    Tomorrow, 20 January, Saturday

    Time Temperature Precipitation Wind Pressure Humidity
    00:00 +7°C° 0.8 mm 4 mps 737 mmHg 90%
    01:00 +7°C° 0.8 mm 4 mps 737 mmHg 90%
    02:00 +7°C° 1.3 mm 4 mps 736 mmHg 91%
    03:00 +7°C° 1.3 mm 4 mps 736 mmHg 92%
    04:00 +7°C° 1.3 mm 4 mps 736 mmHg 93%
    05:00 +7°C° 1.5 mm 4 mps 736 mmHg 93%
    06:00 +7°C° 1.5 mm 4 mps 736 mmHg 93%
    07:00 +8°C° 1.5 mm 5 mps 735 mmHg 93%
    08:00 +8°C° 1.4 mm 4 mps 735 mmHg 94%
    09:00 +8°C° 1.4 mm 4 mps 735 mmHg 94%
    10:00 +8°C° 1.4 mm 4 mps 735 mmHg 94%
    11:00 +8°C° 1.4 mm 4 mps 735 mmHg 92%
    12:00 +10°C° 1.4 mm 4 mps 735 mmHg 91%
    13:00 +10°C° 1.4 mm 3 mps 735 mmHg 89%
    14:00 +9°C° 0.6 mm 3 mps 735 mmHg 89%
    15:00 +9°C° 0.6 mm 3 mps 735 mmHg 90%
    16:00 +8°C° 0.6 mm 2 mps 736 mmHg 90%
    17:00 +8°C° 0 mm 2 mps 736 mmHg 91%
    18:00 +7°C° 0 mm 2 mps 736 mmHg 92%
    19:00 +7°C° 0 mm 1 mps 737 mmHg 93%
    20:00 +7°C° 0 mm 1 mps 737 mmHg 93%
    21:00 +7°C° 0 mm 1 mps 737 mmHg 94%
    22:00 +6°C° 0 mm 2 mps 737 mmHg 94%
    23:00 +6°C° 0 mm 2 mps 737 mmHg 94%

    Day after tomorrow, 21 January, Sunday

    Time Temperature Precipitation Wind Pressure Humidity
    00:00 +5°C° 0 mm 2 mps 736 mmHg 94%
    01:00 +5°C° 0 mm 2 mps 736 mmHg 94%
    02:00 +5°C° 0 mm 2 mps 736 mmHg 92%
    03:00 +5°C° 0 mm 2 mps 735 mmHg 90%
    04:00 +4°C° 0 mm 2 mps 735 mmHg 87%
    05:00 +5°C° 0.3 mm 2 mps 734 mmHg 87%
    06:00 +5°C° 0.3 mm 2 mps 734 mmHg 86%
    07:00 +5°C° 0.3 mm 2 mps 734 mmHg 85%
    08:00 +6°C° 0.8 mm 2 mps 733 mmHg 87%
    09:00 +6°C° 0.8 mm 2 mps 733 mmHg 88%
    10:00 +7°C° 0.8 mm 2 mps 733 mmHg 90%
    11:00 +7°C° 1.2 mm 2 mps 732 mmHg 91%
    12:00 +7°C° 1.2 mm 2 mps 732 mmHg 92%
    13:00 +8°C° 1.2 mm 2 mps 732 mmHg 93%
    14:00 +8°C° 0.5 mm 2 mps 732 mmHg 93%
    15:00 +8°C° 0.5 mm 2 mps 732 mmHg 93%
    16:00 +8°C° 0.5 mm 2 mps 732 mmHg 93%
    17:00 +7°C° 0.1 mm 2 mps 733 mmHg 92%
    18:00 +6°C° 0.1 mm 2 mps 733 mmHg 91%
    19:00 +6°C° 0.1 mm 2 mps 734 mmHg 90%
    20:00 +5°C° 0 mm 2 mps 734 mmHg 88%
    21:00 +5°C° 0 mm 2 mps 735 mmHg 87%
    22:00 +4°C° 0 mm 2 mps 735 mmHg 85%
    23:00 +4°C° 0 mm 2 mps 736 mmHg 83%

    22 January, Monday

    Time Temperature Precipitation Wind Pressure Humidity
    00:00 +4°C° 0 mm 2 mps 736 mmHg 82%
    01:00 +3°C° 0 mm 2 mps 736 mmHg 80%
    02:00 +2°C° 0 mm 3 mps 736 mmHg 78%
    03:00 +1°C° 0 mm 3 mps 737 mmHg 76%
    04:00 0°C° 0 mm 3 mps 737 mmHg 74%
    05:00 0°C° 0 mm 3 mps 738 mmHg 71%
    06:00 -1°C° 0 mm 3 mps 738 mmHg 68%
    07:00 -2°C° 0 mm 4 mps 739 mmHg 65%
    08:00 -1°C° 0 mm 4 mps 739 mmHg 61%
    09:00 0°C° 0 mm 4 mps 740 mmHg 57%
    10:00 +3°C° 0 mm 4 mps 740 mmHg 53%
    11:00 +3°C° 0 mm 4 mps 740 mmHg 52%
    12:00 +4°C° 0 mm 3 mps 740 mmHg 51%
    13:00 +4°C° 0 mm 3 mps 740 mmHg 49%
    14:00 +4°C° 0 mm 3 mps 740 mmHg 52%
    15:00 +3°C° 0 mm 3 mps 740 mmHg 56%
    16:00 +4°C° 0 mm 2 mps 741 mmHg 59%
    17:00 +2°C° 0 mm 3 mps 741 mmHg 59%
    18:00 +1°C° 0 mm 3 mps 741 mmHg 59%
    19:00 0°C° 0 mm 3 mps 742 mmHg 59%
    20:00 +1°C° 0 mm 2 mps 742 mmHg 56%
    21:00 +2°C° 0 mm 2 mps 742 mmHg 54%
    22:00 +2°C° 0 mm 2 mps 742 mmHg 52%
    23:00 +2°C° 0 mm 2 mps 742 mmHg 50%

    23 January, Tuesday

    Time Temperature Precipitation Wind Pressure Humidity
    00:00 +3°C° 0 mm 2 mps 741 mmHg 49%
    01:00 +3°C° 0 mm 2 mps 741 mmHg 48%
    02:00 +3°C° 0 mm 2 mps 741 mmHg 48%
    03:00 +5°C° 0 mm 1 mps 741 mmHg 48%
    04:00 +5°C° 0 mm 1 mps 741 mmHg 49%
    05:00 +5°C° 0.1 mm 1 mps 741 mmHg 50%
    06:00 +5°C° 0.1 mm 1 mps 742 mmHg 52%
    07:00 +6°C° 0.1 mm 1 mps 742 mmHg 54%
    08:00 +6°C° 0.2 mm 1 mps 742 mmHg 58%
    09:00 +7°C° 0.2 mm 1 mps 743 mmHg 62%
    10:00 +8°C° 0.2 mm 1 mps 743 mmHg 66%
    11:00 +9°C° 0 mm 1 mps 743 mmHg 66%
    12:00 +10°C° 0 mm 1 mps 743 mmHg 66%
    13:00 +10°C° 0 mm 1 mps 743 mmHg 65%
    14:00 +9°C° 0 mm 2 mps 743 mmHg 68%
    15:00 +8°C° 0 mm 2 mps 744 mmHg 71%
    16:00 +7°C° 0 mm 2 mps 744 mmHg 74%
    17:00 +7°C° 0 mm 2 mps 744 mmHg 75%
    18:00 +6°C° 0 mm 2 mps 745 mmHg 76%
    19:00 +4°C° 0 mm 3 mps 746 mmHg 77%
    20:00 +4°C° 0 mm 3 mps 746 mmHg 77%
    21:00 +4°C° 0 mm 3 mps 746 mmHg 77%
    22:00 +4°C° 0 mm 3 mps 747 mmHg 77%
    23:00 +4°C° 0 mm 3 mps 747 mmHg 77%

    24 January, Wednesday

    Time Temperature Precipitation Wind Pressure Humidity
    00:00 +4°C° 0 mm 3 mps 747 mmHg 78%
    01:00 +4°C° 0 mm 3 mps 747 mmHg 78%
    02:00 +4°C° 0 mm 3 mps 747 mmHg 79%
    03:00 +5°C° 0 mm 2 mps 747 mmHg 79%
    04:00 +5°C° 0 mm 2 mps 747 mmHg 79%
    05:00 +4°C° 0 mm 2 mps 747 mmHg 79%
    06:00 +4°C° 0 mm 2 mps 747 mmHg 79%
    07:00 +4°C° 0 mm 2 mps 747 mmHg 79%
    08:00 +6°C° 0 mm 2 mps 747 mmHg 76%
    09:00 +8°C° 0 mm 2 mps 747 mmHg 74%
    10:00 +10°C° 0 mm 1 mps 748 mmHg 71%
    11:00 +11°C° 0 mm 1 mps 747 mmHg 70%
    12:00 +10°C° 0 mm 2 mps 747 mmHg 68%
    13:00 +12°C° 0 mm 2 mps 747 mmHg 67%
    14:00 +12°C° 0 mm 2 mps 747 mmHg 70%
    15:00 +10°C° 0 mm 2 mps 747 mmHg 73%
    16:00 +9°C° 0 mm 2 mps 747 mmHg 75%
    17:00 +8°C° 0 mm 2 mps 747 mmHg 77%
    18:00 +7°C° 0 mm 2 mps 748 mmHg 78%
    19:00 +6°C° 0 mm 2 mps 748 mmHg 79%
    20:00 +6°C° 0 mm 2 mps 748 mmHg 79%
    21:00 +4°C° 0 mm 3 mps 748 mmHg 78%
    22:00 +4°C° 0 mm 3 mps 748 mmHg 78%
    23:00 +4°C° 0 mm 3 mps 748 mmHg 77%
    Show more